Regional Weather Roundup
Issued by NWS

Home | Current Version | Previous Version | Text Only | Print | Product List | Glossary On
Versions: 1 2 3 4 5 6 7 8 9 10 11 12 13 14 15 16 17 18 19 20 21 22 23 24 25 26 27 28 29 30 31 32 33 34 35 36 37 38 39 40 41 42 43 44 45 46 47 48 49 50
000
ASUS43 KMKX 291100
RWRWI

WISCONSIN REGIONAL WEATHER ROUNDUP
NATIONAL WEATHER SERVICE MILWAUKEE/SULLIVAN WI
600 AM CDT FRI APR 29 2016

NOTE: "FAIR" INDICATES FEW OR NO CLOUDS BELOW 12,000 FEET WITH NO
SIGNIFICANT WEATHER AND/OR OBSTRUCTIONS TO VISIBILITY.

WIZ001-002-006>008-014>016-023>028-291200-
NORTHWEST WISCONSIN

CITY           SKY/WX    TMP DP  RH WIND       PRES   REMARKS
SUPERIOR ARPT  CLEAR     26  26  99 CALM      30.19S
ASHLAND        CLEAR     27  26  96 CALM      30.18R
HAYWARD        CLOUDY    28  24  85 CALM      30.16R
SIREN          PTCLDY    27  26  96 CALM      30.18R
CUMBERLAND     PTCLDY    32  28  86 CALM      30.14F
RICE LAKE      PTCLDY    35  31  85 CALM      30.16F
CHETEK         CLOUDY    39  37  92 NW5       30.15S
LADYSMITH      CLOUDY    40  37  86 W6        30.16R
EAU CLAIRE     CLOUDY    39  38  96 N3        30.14S
MENOMONIE      CLOUDY    39  39 100 NW5       30.15S
NEW RICHMOND   CLOUDY    35  35 100 CALM      30.15F FOG
OSCEOLA        CLOUDY    36  36 100 N3        30.18F
$$

WIZ003>005-009-010-017-018-291200-
NORTH CENTRAL WISCONSIN

CITY           SKY/WX    TMP DP  RH WIND       PRES   REMARKS
MANITOWISH WTR CLOUDY    36  36 100 CALM      30.13R
ARBOR VITAE    CLOUDY    39  37  93 CALM      30.13R
WOODRUFF       CLOUDY    39  37  93 CALM      30.13R
RHINELANDER    CLOUDY    38  35  89 N3        30.12R
EAGLE RIVER    CLOUDY    37  35  94 CALM      30.12R
LAND O LAKES   CLOUDY    38  33  84 CALM      30.13S
PHILLIPS       CLOUDY    37  35  90 CALM      30.12S
TOMAHAWK       CLOUDY    36  34  94 CALM      30.13R FOG
MEDFORD        CLOUDY    35  35 100 N3        30.11S
MERRILL        CLOUDY    37  37 100 CALM      30.12S
$$

WIZ029-030-035-036-043>047-291200-
CENTRAL WISCONSIN

CITY           SKY/WX    TMP DP  RH WIND       PRES   REMARKS
WAUSAU         CLOUDY    40  35  83 N7        30.11R
MOSINEE        CLOUDY    37  37 100 N8        30.12R WCI  31
MARSHFIELD     CLOUDY    39  35  86 N6        30.10S WCI  35
STEVENS POINT  CLOUDY    35  34  97 N3        30.11S
WAUPACA        CLOUDY    41  36  82 N5        30.11R
WAUTOMA        CLOUDY    39  36  89 N7        30.11  WCI  34
WISC RAPIDS    CLOUDY    39  34  82 NE6       30.12R WCI  35
CAMP DOUGLAS   CLOUDY    36  36 100 NW6       30.11R WCI  31
$$

WIZ011>013-019>022-031-037>040-048>050-291200-
NORTHEAST WISCONSIN

CITY           SKY/WX    TMP DP  RH WIND       PRES   REMARKS
ANTIGO         CLOUDY    36  35  96 N5        30.10S WCI  32
SHAWANO        CLOUDY    40  36  84 N3        30.11R
OCONTO         CLOUDY    40  35  85 CALM      30.09S
STURGEON BAY   CLOUDY    39  32  75 NE3       30.12R
GREEN BAY      CLOUDY    41  34  76 N6        30.10R
MANITOWOC      NOT AVBL
APPLETON       CLOUDY    39  34  81 N6        30.08R WCI  35
CLINTONVILLE   CLOUDY    37  34  87 N6        30.11R WCI  33
OSHKOSH        CLOUDY    41  35  79 NW7       30.09R
$$

WIZ032>034-041-042-053>061-291200-
SOUTHWEST WISCONSIN

CITY           SKY/WX    TMP DP  RH WIND       PRES   REMARKS
LA CROSSE      CLOUDY    40  36  86 NW5       30.15R
SPARTA         CLOUDY    38  37  99 CALM      30.14R
VIROQUA        CLOUDY    37  37 100 N3        30.11R
BOSCOBEL       CLOUDY    41  38  89 N5        30.13R
PRAIRIE DU CHI CLOUDY    41  37  85 N6        30.12S
PLATTEVILLE    CLOUDY    40  39  96 N6        30.10R
$$

WIZ056-057-062-063-064-067-068-291200-
SOUTH CENTRAL WISCONSIN

CITY           SKY/WX    TMP DP  RH WIND       PRES   REMARKS
REEDSBURG      CLOUDY    37  36  96 W5        30.11R WCI  33
BARABOO/DELLS  CLOUDY    37  35  94 W3        30.10R
LONE ROCK      NOT AVBL
MINERAL POINT  FOG       41  39  93 N7        30.08S VSB 3/4
MADISON        CLOUDY    39  36  89 N6        30.09R WCI  35
MIDDLETON      CLOUDY    40  38  93 N8        30.10R WCI  35
WATERTOWN      CLOUDY    38  38 100 N5        30.07S WCI  35
MONROE         CLOUDY    39  37  93 NW5       30.07R
JANESVILLE     CLOUDY    41  41 100 N3        30.07R
$$

WIZ051-052-058>065-066-070>072-291200-
SOUTHEAST WISCONSIN

CITY           SKY/WX    TMP DP  RH WIND       PRES   REMARKS
MILWAUKEE      CLOUDY    40  37  89 N7        30.07R
WAUKESHA       CLOUDY    37  37 100 NW3       30.08R
MILWAUKEE/TIMM CLOUDY    37  36  93 N6        30.08R WCI  33
RACINE         CLOUDY    40  37  89 N6        30.07R
BURLINGTON     CLOUDY    39  38  97 N5        30.06R
KENOSHA        CLOUDY    40  38  93 N8        30.06R WCI  34
FOND DU LAC    CLOUDY    40  37  89 N3        30.08R
SHEBOYGAN      CLOUDY    39  36  89 N5        30.08R
WEST BEND      CLOUDY    37  36  93 CALM      30.07R
JUNEAU         CLOUDY    37  36  93 NW3       30.09R
$$

LSZ147-162-291200-
LAKE SUPERIOR

STATION/POSITION TIME  TEMP    WIND        PRES    WAVE
                       AIR SEA DIR/SP/G            HT/PER
                 (UTC) (F)     (DEG/KT/KT) (MB)    (FT/S)
W MID LAKE BUOY  0950   37 36  350/  8/ 10 1022.3R   1/ 4
DEVILS ISLAND    1000   38      30/  9/ 10 1022.4R
SAXON HARBOR     1000   30     180/  4/  5 1021.0R
$$

LMZ867-665-643>646-291200-
LAKE MICHIGAN

STATION/POSITION TIME  TEMP    WIND        PRES    WAVE
                       AIR SEA DIR/SP/G            HT/PER
                 (UTC) (F)     (DEG/KT/KT) (MB)    (FT/S)
CHAMBERS ISLAND  1000   40      10/ 10/ 11 1019.3S
N MID LAKE BUOY  0950   39 38   50/  8/  8 1019.5R   1/ 3
NORTHPORT PIER   1000   40     340/  3/  5 1019.3S
ALGOMA LAKESHORE 1000           30/  4/  7   N/A
KEWAUNEE LAKESHO 1000   39     340/  2/  4 1018.0R
SHEBOYGAN LAKESH 1000   40      40/  8/  8 1019.0R
PORT WASHINGTON  1000   40     350/  2/  4 1019.0R
S MID LAKE BUOY  0950   40 40   40/ 10/ 10 1017.1R   1/ 3
KENOSHA   LAKESH 1000   41      10/ 13/ 14 1017.3S
$$

TC  - TEMPERATURE IN CELSIUS
VSB - VISIBILITY IN STATUTE MILES
WCI - WIND CHILL INDEX
HX  - HEAT INDEX




USA.gov is the U.S. government's official web portal to all federal, state and local government web resources and services.